Time,TemperatureF,DewpointF,PressureIn,WindDirection,WindDirectionDegrees,WindSpeedMPH,WindSpeedGustMPH,Humidity,HourlyPrecipIn,Conditions,Clouds,dailyrainin,SoftwareType,DateUTC
2013-06-11 00:03:00,68.5,68.2,29.16,East,90,0.0,0.0,99,0.00,,,0.07,meteohub,2013-06-11 10:03:00,
2013-06-11 00:08:00,68.7,68.4,29.16,NE,45,0.0,2.0,99,0.00,,,0.00,meteohub,2013-06-11 10:08:00,
2013-06-11 00:13:00,68.9,68.5,29.16,NE,45,0.0,2.0,99,0.00,,,0.00,meteohub,2013-06-11 10:13:00,
2013-06-11 00:18:00,68.7,68.4,29.16,NE,45,0.0,2.0,99,0.00,,,0.00,meteohub,2013-06-11 10:18:00,
2013-06-11 00:23:00,68.7,68.4,29.16,SE,135,0.0,0.0,99,0.00,,,0.00,meteohub,2013-06-11 10:23:00,
2013-06-11 00:28:00,68.5,68.2,29.16,SE,135,0.0,0.0,99,0.00,,,0.00,meteohub,2013-06-11 10:28:00,
2013-06-11 00:33:00,68.4,68.0,29.16,SE,135,0.0,0.0,99,0.00,,,0.00,meteohub,2013-06-11 10:33:00,
2013-06-11 00:38:00,68.4,68.0,29.15,SE,135,0.0,0.0,99,0.00,,,0.00,meteohub,2013-06-11 10:38:00,
2013-06-11 00:43:00,68.0,67.6,29.15,SE,135,0.0,0.0,99,0.00,,,0.00,meteohub,2013-06-11 10:43:00,
2013-06-11 00:49:00,67.8,67.5,29.15,SE,135,0.0,0.0,99,0.00,,,0.00,meteohub,2013-06-11 10:49:00,
2013-06-11 00:53:00,67.6,67.3,29.15,SE,135,0.0,0.0,99,0.00,,,0.00,meteohub,2013-06-11 10:53:00,
2013-06-11 00:58:00,67.5,67.1,29.15,SE,135,0.0,0.0,99,0.00,,,0.00,meteohub,2013-06-11 10:58:00,
2013-06-11 01:03:00,67.1,66.7,29.15,SE,135,1.0,0.0,99,0.00,,,0.00,meteohub,2013-06-11 11:03:00,
2013-06-11 01:08:00,66.9,66.6,29.14,SE,135,0.0,1.0,99,0.00,,,0.00,meteohub,2013-06-11 11:08:00,
2013-06-11 01:13:00,66.7,66.4,29.14,SE,135,0.0,1.0,99,0.00,,,0.00,meteohub,2013-06-11 11:13:00,
2013-06-11 01:18:00,66.7,66.4,29.14,NE,45,0.0,1.0,99,0.00,,,0.00,meteohub,2013-06-11 11:18:00,
2013-06-11 01:23:00,66.7,66.4,29.14,East,90,4.0,4.0,99,0.00,,,0.00,meteohub,2013-06-11 11:23:00,
2013-06-11 01:28:00,66.9,66.6,29.14,East,90,4.0,4.0,99,0.00,,,0.00,meteohub,2013-06-11 11:28:00,
2013-06-11 01:34:00,66.9,66.6,29.14,NE,45,2.0,5.0,99,0.00,,,0.00,meteohub,2013-06-11 11:34:00,
2013-06-11 01:39:00,66.9,66.6,29.14,NE,45,1.0,5.0,99,0.00,,,0.00,meteohub,2013-06-11 11:39:00,
2013-06-11 01:44:00,66.7,66.4,29.14,NE,45,2.0,5.0,99,0.00,,,0.00,meteohub,2013-06-11 11:44:00,
2013-06-11 01:49:00,66.6,66.2,29.14,East,90,2.0,4.0,99,0.00,,,0.00,meteohub,2013-06-11 11:49:00,
2013-06-11 01:54:00,66.6,66.2,29.14,East,90,2.0,2.0,99,0.00,,,0.00,meteohub,2013-06-11 11:54:00,
2013-06-11 01:59:00,66.6,66.2,29.14,East,90,0.0,2.0,99,0.00,,,0.00,meteohub,2013-06-11 11:59:00,
2013-06-11 02:04:00,66.4,66.0,29.14,East,90,0.0,2.0,99,0.00,,,0.00,meteohub,2013-06-11 12:04:00,
2013-06-11 02:09:00,66.4,66.0,29.14,East,90,0.0,3.0,99,0.00,,,0.00,meteohub,2013-06-11 12:09:00,
2013-06-11 02:14:00,66.2,65.8,29.13,East,90,0.0,3.0,99,0.00,,,0.00,meteohub,2013-06-11 12:14:00,
2013-06-11 02:19:00,66.2,65.8,29.14,East,90,0.0,3.0,99,0.00,,,0.00,meteohub,2013-06-11 12:19:00,
2013-06-11 02:24:00,66.2,65.8,29.14,NE,45,0.0,2.0,99,0.00,,,0.00,meteohub,2013-06-11 12:24:00,
2013-06-11 02:29:00,66.0,65.7,29.14,NE,45,0.0,2.0,99,0.00,,,0.00,meteohub,2013-06-11 12:29:00,
2013-06-11 02:34:00,66.0,65.7,29.14,NE,45,0.0,0.0,99,0.00,,,0.00,meteohub,2013-06-11 12:34:00,
2013-06-11 02:39:00,65.8,65.5,29.13,NE,45,0.0,0.0,99,0.00,,,0.00,meteohub,2013-06-11 12:39:00,
2013-06-11 02:44:00,65.7,65.3,29.13,NE,45,0.0,0.0,99,0.00,,,0.00,meteohub,2013-06-11 12:44:00,
2013-06-11 02:49:00,65.7,65.3,29.14,NE,45,0.0,0.0,99,0.00,,,0.00,meteohub,2013-06-11 12:49:00,
2013-06-11 02:54:00,65.3,64.9,29.14,NE,45,0.0,0.0,99,0.00,,,0.00,meteohub,2013-06-11 12:54:00,
2013-06-11 02:59:00,65.5,65.1,29.14,East,90,0.0,0.0,99,0.00,,,0.00,meteohub,2013-06-11 12:59:00,
2013-06-11 03:04:00,65.3,64.9,29.14,East,90,0.0,2.0,99,0.00,,,0.00,meteohub,2013-06-11 13:04:00,
2013-06-11 03:09:00,65.3,64.9,29.14,NE,45,0.0,2.0,99,0.00,,,0.00,meteohub,2013-06-11 13:09:00,
2013-06-11 03:14:00,65.3,64.9,29.14,NE,45,0.0,2.0,99,0.00,,,0.00,meteohub,2013-06-11 13:14:00,
2013-06-11 03:19:00,65.1,64.8,29.14,NE,45,0.0,2.0,99,0.00,,,0.00,meteohub,2013-06-11 13:19:00,
2013-06-11 03:24:00,65.3,64.9,29.14,NE,45,2.0,2.0,99,0.00,,,0.00,meteohub,2013-06-11 13:24:00,
2013-06-11 03:29:00,65.3,64.9,29.13,NE,45,0.0,2.0,99,0.00,,,0.00,meteohub,2013-06-11 13:29:00,
2013-06-11 03:34:00,65.3,64.9,29.14,East,90,0.0,2.0,99,0.00,,,0.00,meteohub,2013-06-11 13:34:00,
2013-06-11 03:39:00,65.1,64.8,29.14,East,90,0.0,2.0,99,0.00,,,0.00,meteohub,2013-06-11 13:39:00,
2013-06-11 03:44:00,64.9,64.6,29.14,East,90,0.0,2.0,99,0.00,,,0.00,meteohub,2013-06-11 13:44:00,
2013-06-11 03:49:00,64.6,64.2,29.14,East,90,0.0,0.0,99,0.00,,,0.00,meteohub,2013-06-11 13:49:00,
2013-06-11 03:54:00,64.4,64.0,29.13,East,90,0.0,0.0,99,0.00,,,0.00,meteohub,2013-06-11 13:54:00,
2013-06-11 03:59:00,64.6,64.2,29.14,East,90,0.0,0.0,99,0.00,,,0.00,meteohub,2013-06-11 13:59:00,
2013-06-11 04:04:00,64.6,64.2,29.14,East,90,0.0,0.0,99,0.00,,,0.00,meteohub,2013-06-11 14:04:00,
2013-06-11 04:09:00,64.6,64.2,29.14,East,90,0.0,0.0,99,0.00,,,0.00,meteohub,2013-06-11 14:09:00,
2013-06-11 04:14:00,64.6,64.2,29.14,East,90,0.0,0.0,99,0.00,,,0.00,meteohub,2013-06-11 14:14:00,
2013-06-11 04:19:00,64.6,64.2,29.14,NE,45,0.0,0.0,99,0.00,,,0.00,meteohub,2013-06-11 14:19:00,
2013-06-11 04:24:00,64.9,64.6,29.13,East,90,1.0,0.0,99,0.00,,,0.00,meteohub,2013-06-11 14:24:00,
2013-06-11 04:29:00,64.9,64.6,29.13,East,90,0.0,0.0,99,0.00,,,0.00,meteohub,2013-06-11 14:29:00,
2013-06-11 04:34:00,64.9,64.6,29.13,East,90,0.0,2.0,99,0.00,,,0.00,meteohub,2013-06-11 14:34:00,
2013-06-11 04:39:00,64.9,64.6,29.14,East,90,0.0,2.0,99,0.00,,,0.00,meteohub,2013-06-11 14:39:00,
2013-06-11 04:44:00,64.8,64.4,29.14,East,90,0.0,2.0,99,0.00,,,0.00,meteohub,2013-06-11 14:44:00,
2013-06-11 04:49:00,64.6,64.2,29.14,East,90,0.0,0.0,99,0.00,,,0.00,meteohub,2013-06-11 14:49:00,
2013-06-11 04:55:00,64.6,64.2,29.14,East,90,0.0,0.0,99,0.00,,,0.00,meteohub,2013-06-11 14:55:00,
2013-06-11 05:00:00,64.4,64.0,29.14,East,90,2.0,0.0,99,0.00,,,0.00,meteohub,2013-06-11 15:00:00,
2013-06-11 05:05:00,64.4,64.0,29.14,East,90,2.0,2.0,99,0.00,,,0.00,meteohub,2013-06-11 15:05:00,
2013-06-11 05:10:00,64.6,64.2,29.14,North,-999,-999.0,2.0,99,0.00,,,0.00,meteohub,2013-06-11 15:10:00,
2013-06-11 05:15:00,64.6,64.2,29.14,North,-999,-999.0,2.0,99,0.00,,,0.00,meteohub,2013-06-11 15:15:00,
2013-06-11 05:20:00,64.8,64.4,29.14,NE,45,0.0,2.0,99,0.00,,,0.00,meteohub,2013-06-11 15:20:00,
2013-06-11 05:25:00,64.8,64.4,29.13,NE,45,0.0,0.0,99,0.00,,,0.00,meteohub,2013-06-11 15:25:00,
2013-06-11 05:30:00,64.8,64.4,29.14,NE,45,0.0,0.0,99,0.00,,,0.00,meteohub,2013-06-11 15:30:00,
2013-06-11 05:35:00,64.8,64.4,29.14,NE,45,0.0,0.0,99,0.00,,,0.00,meteohub,2013-06-11 15:35:00,
2013-06-11 05:40:00,64.8,64.4,29.14,NE,45,0.0,0.0,99,0.00,,,0.00,meteohub,2013-06-11 15:40:00,
2013-06-11 05:45:00,64.8,64.4,29.14,NE,45,0.0,0.0,99,0.00,,,0.00,meteohub,2013-06-11 15:45:00,
2013-06-11 05:50:00,64.6,64.2,29.15,NE,45,0.0,0.0,99,0.00,,,0.00,meteohub,2013-06-11 15:50:00,
2013-06-11 05:55:00,64.4,64.0,29.16,NE,45,0.0,0.0,99,0.00,,,0.00,meteohub,2013-06-11 15:55:00,
2013-06-11 06:00:00,64.0,63.7,29.16,NE,45,0.0,0.0,99,0.00,,,0.00,meteohub,2013-06-11 16:00:00,
2013-06-11 06:05:00,63.9,63.5,29.16,NE,45,0.0,0.0,99,0.00,,,0.00,meteohub,2013-06-11 16:05:00,
2013-06-11 06:10:00,63.9,63.5,29.17,NE,45,0.0,0.0,99,0.00,,,0.00,meteohub,2013-06-11 16:10:00,
2013-06-11 06:15:00,63.9,63.5,29.17,NE,45,0.0,0.0,99,0.00,,,0.00,meteohub,2013-06-11 16:15:00,
2013-06-11 06:20:00,64.2,63.9,29.17,NE,45,0.0,0.0,99,0.00,,,0.00,meteohub,2013-06-11 16:20:00,
2013-06-11 06:25:00,64.4,64.0,29.17,NE,45,0.0,1.0,99,0.00,,,0.00,meteohub,2013-06-11 16:25:00,
2013-06-11 06:30:00,64.9,64.6,29.18,NE,45,0.0,1.0,99,0.00,,,0.00,meteohub,2013-06-11 16:30:00,
2013-06-11 06:35:00,65.3,64.9,29.17,NE,45,0.0,2.0,99,0.00,,,0.00,meteohub,2013-06-11 16:35:00,
2013-06-11 06:40:00,65.7,65.3,29.18,NE,45,0.0,2.0,99,0.00,,,0.00,meteohub,2013-06-11 16:40:00,
2013-06-11 06:45:00,66.0,65.7,29.18,NE,45,0.0,2.0,99,0.00,,,0.00,meteohub,2013-06-11 16:45:00,
2013-06-11 06:50:00,66.6,66.2,29.17,NE,45,0.0,2.0,99,0.00,,,0.00,meteohub,2013-06-11 16:50:00,
2013-06-11 06:55:00,66.7,66.4,29.18,NE,45,0.0,2.0,99,0.00,,,0.00,meteohub,2013-06-11 16:55:00,
2013-06-11 07:00:00,67.3,66.9,29.17,NE,45,1.0,1.0,99,0.00,,,0.00,meteohub,2013-06-11 17:00:00,
2013-06-11 07:05:00,67.6,67.3,29.18,NE,45,2.0,2.0,99,0.00,,,0.00,meteohub,2013-06-11 17:05:00,
2013-06-11 07:10:00,68.2,67.8,29.17,NE,45,2.0,2.0,99,0.00,,,0.00,meteohub,2013-06-11 17:10:00,
2013-06-11 07:15:00,68.5,68.2,29.17,NE,45,0.0,2.0,99,0.00,,,0.00,meteohub,2013-06-11 17:15:00,
2013-06-11 07:20:00,68.9,68.5,29.18,NE,45,0.0,2.0,99,0.00,,,0.00,meteohub,2013-06-11 17:20:00,
2013-06-11 07:25:00,69.3,68.9,29.18,NE,45,0.0,2.0,99,0.00,,,0.00,meteohub,2013-06-11 17:25:00,
2013-06-11 07:30:00,70.2,69.8,29.17,NE,45,0.0,1.0,99,0.00,,,0.00,meteohub,2013-06-11 17:30:00,
2013-06-11 07:35:00,72.0,71.6,29.17,NE,45,0.0,1.0,99,0.00,,,0.00,meteohub,2013-06-11 17:35:00,
2013-06-11 07:40:00,73.8,73.4,29.17,NE,45,0.0,1.0,99,0.00,,,0.00,meteohub,2013-06-11 17:40:00,
2013-06-11 07:45:00,75.0,73.2,29.17,SE,135,2.0,2.0,94,0.00,,,0.00,meteohub,2013-06-11 17:45:00,
2013-06-11 07:50:00,74.8,72.0,29.18,SE,135,0.0,2.0,91,0.00,,,0.00,meteohub,2013-06-11 17:50:00,
2013-06-11 07:55:00,74.5,71.6,29.18,SE,135,0.0,2.0,91,0.00,,,0.00,meteohub,2013-06-11 17:55:00,
2013-06-11 08:01:00,74.8,71.8,29.17,SE,135,0.0,2.0,90,0.00,,,0.00,meteohub,2013-06-11 18:01:00,
2013-06-11 08:06:00,74.7,71.2,29.18,North,0,0.0,4.0,89,0.00,,,0.00,meteohub,2013-06-11 18:06:00,
2013-06-11 08:11:00,74.7,70.2,29.18,South,180,3.0,4.0,86,0.00,,,0.00,meteohub,2013-06-11 18:11:00,
2013-06-11 08:16:00,75.2,70.7,29.18,SE,135,4.0,4.0,86,0.00,,,0.00,meteohub,2013-06-11 18:16:00,
2013-06-11 08:21:00,75.0,70.2,29.18,NW,315,0.0,4.0,85,0.00,,,0.00,meteohub,2013-06-11 18:21:00,
2013-06-11 08:26:00,74.8,70.3,29.18,SE,135,2.0,4.0,86,0.00,,,0.00,meteohub,2013-06-11 18:26:00,
2013-06-11 08:31:00,75.0,70.2,29.18,East,90,2.0,4.0,85,0.00,,,0.00,meteohub,2013-06-11 18:31:00,
2013-06-11 08:36:00,74.5,69.6,29.18,SE,135,0.0,3.0,85,0.00,,,0.00,meteohub,2013-06-11 18:36:00,
2013-06-11 08:41:00,74.7,70.2,29.18,SE,135,0.0,3.0,86,0.00,,,0.00,meteohub,2013-06-11 18:41:00,
2013-06-11 08:46:00,75.0,70.5,29.18,NW,315,2.0,3.0,86,0.00,,,0.00,meteohub,2013-06-11 18:46:00,
2013-06-11 08:51:00,75.4,70.5,29.18,NW,315,2.0,2.0,85,0.00,,,0.00,meteohub,2013-06-11 18:51:00,
2013-06-11 08:56:00,75.7,70.5,29.18,South,180,1.0,2.0,84,0.00,,,0.00,meteohub,2013-06-11 18:56:00,
2013-06-11 09:01:00,76.1,70.9,29.18,SW,225,0.0,2.0,84,0.00,,,0.00,meteohub,2013-06-11 19:01:00,
2013-06-11 09:06:00,76.5,70.5,29.18,South,180,0.0,2.0,82,0.00,,,0.00,meteohub,2013-06-11 19:06:00,
2013-06-11 09:11:00,77.0,71.4,29.18,SW,225,1.0,2.0,83,0.00,,,0.00,meteohub,2013-06-11 19:11:00,
2013-06-11 09:16:00,76.5,70.9,29.18,West,270,3.0,3.0,83,0.00,,,0.00,meteohub,2013-06-11 19:16:00,
2013-06-11 09:21:00,76.3,71.4,29.17,NW,315,3.0,5.0,85,0.00,,,0.00,meteohub,2013-06-11 19:21:00,
2013-06-11 09:26:00,76.5,71.6,29.17,South,180,2.0,5.0,85,0.00,,,0.00,meteohub,2013-06-11 19:26:00,
2013-06-11 09:31:00,75.9,70.7,29.17,NW,315,2.0,4.0,84,0.00,,,0.00,meteohub,2013-06-11 19:31:00,
2013-06-11 09:36:00,76.3,71.4,29.17,SW,225,1.0,4.0,85,0.00,,,0.00,meteohub,2013-06-11 19:36:00,
2013-06-11 09:41:00,77.2,72.0,29.16,West,270,0.0,4.0,84,0.00,,,0.00,meteohub,2013-06-11 19:41:00,
2013-06-11 09:46:00,77.5,72.0,29.16,West,270,4.0,4.0,83,0.00,,,0.00,meteohub,2013-06-11 19:46:00,
2013-06-11 09:51:00,77.2,70.9,29.16,West,270,2.0,4.0,81,0.00,,,0.00,meteohub,2013-06-11 19:51:00,
2013-06-11 09:56:00,76.5,70.5,29.16,West,270,0.0,4.0,82,0.00,,,0.00,meteohub,2013-06-11 19:56:00,
2013-06-11 10:01:00,76.1,70.2,29.16,West,270,2.0,4.0,82,0.00,,,0.00,meteohub,2013-06-11 20:01:00,
2013-06-11 10:06:00,75.9,70.3,29.16,NW,315,2.0,4.0,83,0.00,,,0.00,meteohub,2013-06-11 20:06:00,
2013-06-11 10:11:00,75.7,70.2,29.16,South,180,1.0,4.0,83,0.00,,,0.00,meteohub,2013-06-11 20:11:00,
2013-06-11 10:17:00,76.3,71.4,29.16,West,270,2.0,7.0,85,0.00,,,0.00,meteohub,2013-06-11 20:17:00,
2013-06-11 10:22:00,76.5,71.2,29.16,South,180,0.0,7.0,84,0.00,,,0.00,meteohub,2013-06-11 20:22:00,
2013-06-11 10:27:00,76.5,70.9,29.16,North,0,1.0,7.0,83,0.00,,,0.00,meteohub,2013-06-11 20:27:00,
2013-06-11 10:32:00,76.3,70.3,29.16,West,270,4.0,4.0,82,0.00,,,0.00,meteohub,2013-06-11 20:32:00,
2013-06-11 10:37:00,75.7,70.2,29.16,NW,315,2.0,4.0,83,0.00,,,0.00,meteohub,2013-06-11 20:37:00,
2013-06-11 10:42:00,75.6,70.0,29.16,North,0,2.0,6.0,83,0.00,,,0.00,meteohub,2013-06-11 20:42:00,
2013-06-11 10:47:00,75.4,70.5,29.16,NW,315,3.0,6.0,85,0.00,,,0.00,meteohub,2013-06-11 20:47:00,
2013-06-11 10:52:00,75.7,70.9,29.16,SW,225,0.0,5.0,85,0.00,,,0.00,meteohub,2013-06-11 20:52:00,
2013-06-11 10:57:00,76.3,71.4,29.16,West,270,1.0,5.0,85,0.00,,,0.00,meteohub,2013-06-11 20:57:00,
2013-06-11 11:02:00,76.3,71.1,29.16,NW,315,0.0,4.0,84,0.00,,,0.00,meteohub,2013-06-11 21:02:00,
2013-06-11 11:07:00,76.1,70.9,29.16,West,270,4.0,4.0,84,0.00,,,0.00,meteohub,2013-06-11 21:07:00,
2013-06-11 11:12:00,75.9,70.7,29.16,SE,135,2.0,5.0,84,0.00,,,0.00,meteohub,2013-06-11 21:12:00,
2013-06-11 11:17:00,75.7,70.9,29.16,SW,225,0.0,5.0,85,0.00,,,0.00,meteohub,2013-06-11 21:17:00,
2013-06-11 11:22:00,75.7,70.9,29.16,West,270,2.0,5.0,85,0.00,,,0.00,meteohub,2013-06-11 21:22:00,
2013-06-11 11:27:00,75.6,70.7,29.16,NW,315,2.0,4.0,85,0.00,,,0.00,meteohub,2013-06-11 21:27:00,
2013-06-11 11:32:00,75.9,71.4,29.16,West,270,0.0,3.0,86,0.00,,,0.00,meteohub,2013-06-11 21:32:00,
2013-06-11 11:37:00,75.9,71.1,29.16,West,270,2.0,3.0,85,0.00,,,0.00,meteohub,2013-06-11 21:37:00,
2013-06-11 11:42:00,75.6,70.7,29.16,SW,225,2.0,4.0,85,0.00,,,0.00,meteohub,2013-06-11 21:42:00,
2013-06-11 11:47:00,75.4,70.2,29.16,NW,315,4.0,4.0,84,0.00,,,0.00,meteohub,2013-06-11 21:47:00,
2013-06-11 11:52:00,75.0,70.2,29.15,West,270,2.0,4.0,85,0.00,,,0.00,meteohub,2013-06-11 21:52:00,
2013-06-11 11:57:00,74.8,70.0,29.15,West,270,0.0,4.0,85,0.00,,,0.00,meteohub,2013-06-11 21:57:00,
2013-06-11 12:02:00,75.2,70.3,29.15,West,270,2.0,4.0,85,0.00,,,0.00,meteohub,2013-06-11 22:02:00,
2013-06-11 12:07:00,75.2,70.3,29.15,West,270,0.0,3.0,85,0.00,,,0.00,meteohub,2013-06-11 22:07:00,
2013-06-11 12:12:00,75.2,70.3,29.15,West,270,3.0,3.0,85,0.00,,,0.00,meteohub,2013-06-11 22:12:00,
2013-06-11 12:17:00,74.8,70.0,29.15,NW,315,1.0,3.0,85,0.00,,,0.00,meteohub,2013-06-11 22:17:00,
2013-06-11 12:22:00,74.3,69.4,29.14,West,270,3.0,3.0,85,0.00,,,0.00,meteohub,2013-06-11 22:22:00,
2013-06-11 12:27:00,74.1,70.0,29.15,West,270,4.0,4.0,87,0.00,,,0.00,meteohub,2013-06-11 22:27:00,
2013-06-11 12:32:00,73.9,70.2,29.14,West,270,0.0,4.0,88,0.00,,,0.00,meteohub,2013-06-11 22:32:00,
2013-06-11 12:37:00,73.8,70.0,29.14,West,270,3.0,4.0,88,0.00,,,0.00,meteohub,2013-06-11 22:37:00,
2013-06-11 12:42:00,73.6,70.2,29.14,NW,315,2.0,4.0,89,0.00,,,0.00,meteohub,2013-06-11 22:42:00,
2013-06-11 12:47:00,73.4,70.5,29.15,NW,315,2.0,4.0,91,0.00,,,0.00,meteohub,2013-06-11 22:47:00,
2013-06-11 12:53:00,73.0,70.5,29.14,NW,315,4.0,4.0,92,0.00,,,0.00,meteohub,2013-06-11 22:53:00,
2013-06-11 12:58:00,72.7,70.5,29.15,West,270,2.0,3.0,93,0.00,,,0.00,meteohub,2013-06-11 22:58:00,
2013-06-11 13:03:00,72.5,70.7,29.14,West,270,3.0,4.0,94,0.00,,,0.00,meteohub,2013-06-11 23:03:00,
2013-06-11 13:08:00,72.3,70.9,29.14,NW,315,0.0,4.0,95,0.00,,,0.00,meteohub,2013-06-11 23:08:00,
2013-06-11 13:13:00,72.3,71.4,29.14,NW,315,2.0,4.0,97,0.00,,,0.00,meteohub,2013-06-11 23:13:00,
2013-06-11 13:18:00,72.3,71.8,29.14,NW,315,2.0,3.0,98,0.00,,,0.00,meteohub,2013-06-11 23:18:00,
2013-06-11 13:23:00,72.1,71.6,29.14,NW,315,2.0,4.0,98,0.00,,,0.00,meteohub,2013-06-11 23:23:00,
2013-06-11 13:28:00,72.1,71.8,29.14,West,270,1.0,4.0,99,0.00,,,0.00,meteohub,2013-06-11 23:28:00,
2013-06-11 13:33:00,72.3,72.0,29.14,NW,315,3.0,4.0,99,0.00,,,0.00,meteohub,2013-06-11 23:33:00,
2013-06-11 13:38:00,72.1,71.8,29.14,NW,315,2.0,4.0,99,0.00,,,0.00,meteohub,2013-06-11 23:38:00,
2013-06-11 13:43:00,72.0,71.6,29.14,NW,315,2.0,4.0,99,0.00,,,0.00,meteohub,2013-06-11 23:43:00,
2013-06-11 13:48:00,72.0,71.6,29.14,NW,315,0.0,4.0,99,0.00,,,0.00,meteohub,2013-06-11 23:48:00,
2013-06-11 13:53:00,72.1,71.8,29.14,NW,315,1.0,3.0,99,0.00,,,0.00,meteohub,2013-06-11 23:53:00,
2013-06-11 13:58:00,72.0,71.6,29.13,NW,315,0.0,3.0,99,0.00,,,0.00,meteohub,2013-06-11 23:58:00,
2013-06-11 14:03:00,72.0,71.6,29.13,NW,315,0.0,1.0,99,0.00,,,0.00,meteohub,2013-06-12 00:03:00,
2013-06-11 14:08:00,72.1,71.8,29.13,North,0,0.0,1.0,99,0.00,,,0.00,meteohub,2013-06-12 00:08:00,
2013-06-11 14:13:00,72.1,71.8,29.13,North,0,2.0,2.0,99,0.00,,,0.00,meteohub,2013-06-12 00:13:00,
2013-06-11 14:18:00,72.1,71.8,29.14,NE,45,0.0,2.0,99,0.00,,,0.00,meteohub,2013-06-12 00:18:00,
2013-06-11 14:23:00,72.3,72.0,29.14,North,0,0.0,2.0,99,0.00,,,0.00,meteohub,2013-06-12 00:23:00,
2013-06-11 14:28:00,72.7,72.3,29.13,NW,315,0.0,2.0,99,0.00,,,0.00,meteohub,2013-06-12 00:28:00,
2013-06-11 14:33:00,72.7,72.3,29.14,NW,315,0.0,2.0,99,0.00,,,0.00,meteohub,2013-06-12 00:33:00,
2013-06-11 14:38:00,72.9,72.5,29.13,North,0,2.0,2.0,99,0.00,,,0.00,meteohub,2013-06-12 00:38:00,
2013-06-11 14:43:00,72.9,72.5,29.13,North,0,1.0,2.0,99,0.00,,,0.00,meteohub,2013-06-12 00:43:00,
2013-06-11 14:48:00,72.9,72.5,29.13,NW,315,2.0,2.0,99,0.00,,,0.00,meteohub,2013-06-12 00:48:00,
2013-06-11 14:53:00,72.9,72.5,29.14,West,270,0.0,2.0,99,0.00,,,0.00,meteohub,2013-06-12 00:53:00,
2013-06-11 14:58:00,72.3,72.0,29.14,NW,315,0.0,2.0,99,0.00,,,0.00,meteohub,2013-06-12 00:58:00,
2013-06-11 15:03:00,72.3,72.0,29.13,North,0,1.0,4.0,99,0.00,,,0.00,meteohub,2013-06-12 01:03:00,
2013-06-11 15:08:00,72.3,72.0,29.13,NW,315,2.0,4.0,99,0.00,,,0.00,meteohub,2013-06-12 01:08:00,
2013-06-11 15:13:00,72.1,71.8,29.13,West,270,1.0,4.0,99,0.00,,,0.00,meteohub,2013-06-12 01:13:00,
2013-06-11 15:18:00,72.1,71.8,29.13,West,270,0.0,2.0,99,0.00,,,0.00,meteohub,2013-06-12 01:18:00,
2013-06-11 15:23:00,72.1,71.8,29.13,West,270,0.0,2.0,99,0.00,,,0.00,meteohub,2013-06-12 01:23:00,
2013-06-11 15:28:00,72.1,71.8,29.13,West,270,0.0,2.0,99,0.00,,,0.00,meteohub,2013-06-12 01:28:00,
2013-06-11 15:33:00,72.3,72.0,29.13,West,270,0.0,1.0,99,0.00,,,0.00,meteohub,2013-06-12 01:33:00,
2013-06-11 15:38:00,72.3,72.0,29.12,North,0,1.0,2.0,99,0.00,,,0.00,meteohub,2013-06-12 01:38:00,
2013-06-11 15:43:00,72.3,72.0,29.13,North,0,0.0,2.0,99,0.00,,,0.00,meteohub,2013-06-12 01:43:00,
2013-06-11 15:48:00,72.3,72.0,29.13,North,0,0.0,2.0,99,0.00,,,0.00,meteohub,2013-06-12 01:48:00,
2013-06-11 15:53:00,72.3,72.0,29.12,West,270,1.0,2.0,99,0.00,,,0.00,meteohub,2013-06-12 01:53:00,
2013-06-11 15:58:00,72.3,72.0,29.12,West,270,0.0,0.0,99,0.00,,,0.00,meteohub,2013-06-12 01:58:00,
2013-06-11 16:03:00,72.3,72.0,29.11,NW,315,2.0,2.0,99,0.00,,,0.00,meteohub,2013-06-12 02:03:00,
2013-06-11 16:08:00,72.5,72.1,29.11,North,0,0.0,2.0,99,0.00,,,0.00,meteohub,2013-06-12 02:08:00,
2013-06-11 16:13:00,72.9,72.3,29.11,North,0,0.0,2.0,98,0.00,,,0.00,meteohub,2013-06-12 02:13:00,
2013-06-11 16:18:00,73.0,71.8,29.11,North,0,0.0,2.0,96,0.00,,,0.00,meteohub,2013-06-12 02:18:00,
2013-06-11 16:23:00,73.2,71.4,29.11,NW,315,0.0,1.0,94,0.00,,,0.00,meteohub,2013-06-12 02:23:00,
2013-06-11 16:28:00,73.0,70.9,29.11,NW,315,0.0,1.0,93,0.00,,,0.00,meteohub,2013-06-12 02:28:00,
2013-06-11 16:33:00,73.0,70.9,29.11,NW,315,0.0,1.0,93,0.00,,,0.00,meteohub,2013-06-12 02:33:00,
2013-06-11 16:39:00,72.7,71.2,29.12,West,270,2.0,2.0,95,0.00,,,0.00,meteohub,2013-06-12 02:39:00,
2013-06-11 16:44:00,72.3,71.1,29.12,West,270,0.0,4.0,96,0.00,,,0.00,meteohub,2013-06-12 02:44:00,
2013-06-11 16:49:00,72.1,71.2,29.11,West,270,1.0,4.0,97,0.00,,,0.00,meteohub,2013-06-12 02:49:00,
2013-06-11 16:54:00,72.1,71.6,29.12,West,270,0.0,4.0,98,0.00,,,0.00,meteohub,2013-06-12 02:54:00,
2013-06-11 16:59:00,72.1,71.8,29.12,West,270,0.0,3.0,99,0.00,,,0.00,meteohub,2013-06-12 02:59:00,
2013-06-11 17:04:00,72.3,72.0,29.12,NW,315,2.0,2.0,99,0.00,,,0.00,meteohub,2013-06-12 03:04:00,
2013-06-11 17:09:00,72.3,72.0,29.12,NW,315,0.0,2.0,99,0.00,,,0.00,meteohub,2013-06-12 03:09:00,
2013-06-11 17:14:00,72.5,72.1,29.12,West,270,2.0,2.0,99,0.00,,,0.00,meteohub,2013-06-12 03:14:00,
2013-06-11 17:19:00,72.7,72.1,29.12,North,0,0.0,2.0,98,0.00,,,0.00,meteohub,2013-06-12 03:19:00,
2013-06-11 17:24:00,72.9,72.3,29.12,NW,315,1.0,2.0,98,0.00,,,0.00,meteohub,2013-06-12 03:24:00,
2013-06-11 17:29:00,72.9,72.0,29.12,NW,315,2.0,2.0,97,0.00,,,0.00,meteohub,2013-06-12 03:29:00,
2013-06-11 17:34:00,72.7,72.1,29.13,NW,315,2.0,2.0,98,0.00,,,0.00,meteohub,2013-06-12 03:34:00,
2013-06-11 17:39:00,72.5,72.1,29.12,NW,315,2.0,2.0,99,0.00,,,0.00,meteohub,2013-06-12 03:39:00,
2013-06-11 17:44:00,72.1,71.8,29.13,NW,315,0.0,2.0,99,0.00,,,0.00,meteohub,2013-06-12 03:44:00,
2013-06-11 17:49:00,72.1,71.8,29.13,North,0,0.0,2.0,99,0.00,,,0.00,meteohub,2013-06-12 03:49:00,
2013-06-11 17:54:00,71.8,71.4,29.13,NW,315,0.0,2.0,99,0.00,,,0.00,meteohub,2013-06-12 03:54:00,
2013-06-11 17:59:00,71.8,71.4,29.13,NW,315,0.0,2.0,99,0.00,,,0.00,meteohub,2013-06-12 03:59:00,
2013-06-11 18:01:00,71.6,71.2,29.13,North,0,2.0,2.0,99,0.00,,,0.00,meteohub,2013-06-12 04:01:00,
2013-06-11 18:02:00,71.6,71.2,29.13,North,0,2.0,2.0,99,0.00,,,0.00,meteohub,2013-06-12 04:02:00,
2013-06-11 18:03:00,71.6,71.2,29.13,North,0,2.0,2.0,99,0.00,,,0.00,meteohub,2013-06-12 04:03:00,
2013-06-11 18:08:00,71.2,70.9,29.13,North,0,2.0,2.0,99,0.00,,,0.00,meteohub,2013-06-12 04:08:00,
2013-06-11 18:13:00,71.1,70.7,29.13,NW,315,0.0,2.0,99,0.00,,,0.00,meteohub,2013-06-12 04:13:00,
2013-06-11 18:18:00,70.9,70.5,29.13,North,0,2.0,2.0,99,0.00,,,0.00,meteohub,2013-06-12 04:18:00,
2013-06-11 18:23:00,70.7,70.3,29.14,North,0,2.0,3.0,99,0.00,,,0.00,meteohub,2013-06-12 04:23:00,
2013-06-11 18:28:00,70.5,70.2,29.13,NW,315,2.0,3.0,99,0.00,,,0.00,meteohub,2013-06-12 04:28:00,
2013-06-11 18:33:00,70.3,70.0,29.14,West,270,0.0,3.0,99,0.00,,,0.00,meteohub,2013-06-12 04:33:00,
2013-06-11 18:38:00,70.3,70.0,29.14,West,270,0.0,3.0,99,0.00,,,0.00,meteohub,2013-06-12 04:38:00,
2013-06-11 18:43:00,70.2,69.8,29.14,NE,45,0.0,2.0,99,0.00,,,0.00,meteohub,2013-06-12 04:43:00,
2013-06-11 18:48:00,70.2,69.8,29.14,NE,45,0.0,0.0,99,0.00,,,0.00,meteohub,2013-06-12 04:48:00,
2013-06-11 18:53:00,70.2,69.8,29.14,NW,315,0.0,0.0,99,0.00,,,0.00,meteohub,2013-06-12 04:53:00,
2013-06-11 18:58:00,70.2,69.8,29.14,North,0,1.0,0.0,99,0.00,,,0.00,meteohub,2013-06-12 04:58:00,
2013-06-11 19:03:00,70.0,69.6,29.15,North,0,1.0,2.0,99,0.00,,,0.00,meteohub,2013-06-12 05:03:00,
2013-06-11 19:08:00,70.0,69.6,29.14,West,270,0.0,2.0,99,0.00,,,0.00,meteohub,2013-06-12 05:08:00,
2013-06-11 19:13:00,70.0,69.6,29.14,West,270,0.0,2.0,99,0.00,,,0.00,meteohub,2013-06-12 05:13:00,
2013-06-11 19:18:00,70.0,69.6,29.14,North,0,1.0,2.0,99,0.00,,,0.00,meteohub,2013-06-12 05:18:00,
2013-06-11 19:23:00,70.0,69.6,29.15,North,0,0.0,2.0,99,0.00,,,0.00,meteohub,2013-06-12 05:23:00,
2013-06-11 19:28:00,70.0,69.6,29.15,NW,315,0.0,2.0,99,0.00,,,0.00,meteohub,2013-06-12 05:28:00,
2013-06-11 19:33:00,69.8,69.4,29.15,North,0,2.0,2.0,99,0.00,,,0.00,meteohub,2013-06-12 05:33:00,
2013-06-11 19:38:00,69.8,69.4,29.16,North,0,2.0,2.0,99,0.00,,,0.00,meteohub,2013-06-12 05:38:00,
2013-06-11 19:43:00,69.8,69.4,29.16,North,0,0.0,2.0,99,0.00,,,0.00,meteohub,2013-06-12 05:43:00,
2013-06-11 19:48:00,69.8,69.4,29.16,NW,315,3.0,3.0,99,0.00,,,0.00,meteohub,2013-06-12 05:48:00,
2013-06-11 19:53:00,69.8,69.4,29.16,North,-999,-999.0,3.0,99,0.00,,,0.00,meteohub,2013-06-12 05:53:00,
2013-06-11 19:58:00,69.8,69.4,29.16,North,-999,-999.0,3.0,99,0.00,,,0.00,meteohub,2013-06-12 05:58:00,
2013-06-11 20:03:00,69.8,69.4,29.16,West,270,0.0,3.0,99,0.00,,,0.00,meteohub,2013-06-12 06:03:00,
2013-06-11 20:08:00,69.8,69.4,29.16,West,270,0.0,2.0,99,0.00,,,0.00,meteohub,2013-06-12 06:08:00,
2013-06-11 20:13:00,69.8,69.4,29.16,West,270,2.0,2.0,99,0.00,,,0.00,meteohub,2013-06-12 06:13:00,
2013-06-11 20:18:00,69.8,69.4,29.16,West,270,0.0,2.0,99,0.00,,,0.00,meteohub,2013-06-12 06:18:00,
2013-06-11 20:23:00,69.8,69.4,29.17,NE,45,0.0,2.0,99,0.00,,,0.00,meteohub,2013-06-12 06:23:00,
2013-06-11 20:28:00,69.8,69.4,29.16,North,0,0.0,2.0,99,0.00,,,0.00,meteohub,2013-06-12 06:28:00,
2013-06-11 20:33:00,70.0,69.6,29.16,North,0,0.0,0.0,99,0.00,,,0.00,meteohub,2013-06-12 06:33:00,
2013-06-11 20:38:00,70.0,69.6,29.16,North,0,0.0,0.0,99,0.00,,,0.00,meteohub,2013-06-12 06:38:00,
2013-06-11 20:43:00,70.0,69.6,29.16,North,0,0.0,0.0,99,0.00,,,0.00,meteohub,2013-06-12 06:43:00,
2013-06-11 20:48:00,70.0,69.6,29.16,North,0,0.0,0.0,99,0.00,,,0.00,meteohub,2013-06-12 06:48:00,
2013-06-11 20:53:00,70.0,69.6,29.16,North,0,0.0,0.0,99,0.00,,,0.00,meteohub,2013-06-12 06:53:00,
2013-06-11 20:58:00,70.0,69.6,29.16,North,0,2.0,0.0,99,0.00,,,0.00,meteohub,2013-06-12 06:58:00,
2013-06-11 21:03:00,70.0,69.6,29.16,North,0,0.0,1.0,99,0.00,,,0.00,meteohub,2013-06-12 07:03:00,
2013-06-11 21:08:00,70.0,69.6,29.16,North,0,2.0,2.0,99,0.00,,,0.00,meteohub,2013-06-12 07:08:00,
2013-06-11 21:13:00,70.0,69.6,29.17,North,0,0.0,2.0,99,0.00,,,0.00,meteohub,2013-06-12 07:13:00,
2013-06-11 21:18:00,70.0,69.6,29.16,North,0,0.0,2.0,99,0.00,,,0.00,meteohub,2013-06-12 07:18:00,
2013-06-11 21:23:00,70.2,69.8,29.17,North,0,0.0,2.0,99,0.00,,,0.00,meteohub,2013-06-12 07:23:00,
2013-06-11 21:28:00,70.2,69.8,29.17,North,0,0.0,0.0,99,0.00,,,0.00,meteohub,2013-06-12 07:28:00,
2013-06-11 21:33:00,70.0,69.6,29.18,North,-999,-999.0,0.0,99,0.00,,,0.00,meteohub,2013-06-12 07:33:00,
2013-06-11 21:38:00,70.0,69.6,29.18,North,-999,-999.0,0.0,99,0.00,,,0.00,meteohub,2013-06-12 07:38:00,
2013-06-11 21:43:00,70.0,69.6,29.17,North,-999,-999.0,-999.0,99,0.00,,,0.00,meteohub,2013-06-12 07:43:00,
2013-06-11 21:48:00,70.0,69.6,29.18,North,-999,-999.0,-999.0,99,0.00,,,0.00,meteohub,2013-06-12 07:48:00,
2013-06-11 21:53:00,70.0,69.6,29.18,North,-999,-999.0,-999.0,99,0.00,,,0.00,meteohub,2013-06-12 07:53:00,
2013-06-11 21:58:00,69.8,69.4,29.18,North,-999,-999.0,-999.0,99,0.00,,,0.00,meteohub,2013-06-12 07:58:00,
2013-06-11 22:03:00,69.8,69.4,29.18,North,-999,-999.0,-999.0,99,0.00,,,0.00,meteohub,2013-06-12 08:03:00,
2013-06-11 22:09:00,69.8,69.4,29.18,North,-999,-999.0,-999.0,99,0.00,,,0.00,meteohub,2013-06-12 08:09:00,
2013-06-11 22:13:00,69.6,69.3,29.18,North,-999,-999.0,-999.0,99,0.00,,,0.00,meteohub,2013-06-12 08:13:00,
2013-06-11 22:19:00,69.6,69.3,29.18,North,-999,-999.0,-999.0,99,0.00,,,0.00,meteohub,2013-06-12 08:19:00,
2013-06-11 22:23:00,69.6,69.3,29.18,North,-999,-999.0,-999.0,99,0.00,,,0.00,meteohub,2013-06-12 08:23:00,
2013-06-11 22:28:00,69.6,69.3,29.18,North,-999,-999.0,-999.0,99,0.00,,,0.00,meteohub,2013-06-12 08:28:00,
2013-06-11 22:34:00,69.6,69.3,29.18,North,-999,-999.0,-999.0,99,0.00,,,0.00,meteohub,2013-06-12 08:34:00,
2013-06-11 22:39:00,69.8,69.4,29.18,North,-999,-999.0,-999.0,99,0.00,,,0.00,meteohub,2013-06-12 08:39:00,
2013-06-11 22:44:00,69.8,69.4,29.18,North,-999,-999.0,-999.0,99,0.00,,,0.00,meteohub,2013-06-12 08:44:00,
2013-06-11 22:49:00,69.8,69.4,29.18,North,-999,-999.0,-999.0,99,0.00,,,0.00,meteohub,2013-06-12 08:49:00,
2013-06-11 22:54:00,70.0,69.6,29.18,North,-999,-999.0,-999.0,99,0.00,,,0.00,meteohub,2013-06-12 08:54:00,
2013-06-11 22:59:00,70.0,69.6,29.18,North,-999,-999.0,-999.0,99,0.00,,,0.00,meteohub,2013-06-12 08:59:00,
2013-06-11 23:04:00,70.0,69.6,29.18,North,-999,-999.0,-999.0,99,0.00,,,0.00,meteohub,2013-06-12 09:04:00,
2013-06-11 23:09:00,70.0,69.6,29.18,North,-999,-999.0,-999.0,99,0.00,,,0.00,meteohub,2013-06-12 09:09:00,
2013-06-11 23:14:00,70.0,69.6,29.18,North,-999,-999.0,-999.0,99,0.00,,,0.00,meteohub,2013-06-12 09:14:00,
2013-06-11 23:19:00,70.0,69.6,29.18,North,-999,-999.0,-999.0,99,0.00,,,0.00,meteohub,2013-06-12 09:19:00,
2013-06-11 23:24:00,70.0,69.6,29.18,North,-999,-999.0,-999.0,99,0.00,,,0.00,meteohub,2013-06-12 09:24:00,
2013-06-11 23:29:00,70.0,69.6,29.18,NE,45,0.0,-999.0,99,0.00,,,0.00,meteohub,2013-06-12 09:29:00,
2013-06-11 23:34:00,70.0,69.6,29.18,NE,45,0.0,0.0,99,0.00,,,0.00,meteohub,2013-06-12 09:34:00,
2013-06-11 23:39:00,70.0,69.6,29.18,NE,45,0.0,0.0,99,0.00,,,0.00,meteohub,2013-06-12 09:39:00,
2013-06-11 23:44:00,70.2,69.8,29.18,NE,45,0.0,0.0,99,0.00,,,0.00,meteohub,2013-06-12 09:44:00,
2013-06-11 23:49:00,70.2,69.8,29.18,NE,45,0.0,0.0,99,0.00,,,0.00,meteohub,2013-06-12 09:49:00,
2013-06-11 23:54:00,70.2,69.8,29.18,NE,45,0.0,0.0,99,0.00,,,0.00,meteohub,2013-06-12 09:54:00,
2013-06-11 23:59:00,70.2,69.8,29.18,NE,45,0.0,0.0,99,0.00,,,0.00,meteohub,2013-06-12 09:59:00,